Time,TemperatureF,DewpointF,PressureIn,WindDirection,WindDirectionDegrees,WindSpeedMPH,WindSpeedGustMPH,Humidity,HourlyPrecipIn,Conditions,Clouds,dailyrainin,SoftwareType,DateUTC
2013-07-26 00:02:00,64.0,-99.9,-100.00,NE,45,5.0,10.0,-999,-99.99,,,-99.99,,2013-07-26 04:02:00,
2013-07-26 00:23:00,64.0,-99.9,-100.00,NE,47,5.0,11.0,-999,-99.99,,,-99.99,,2013-07-26 04:23:00,
2013-07-26 01:02:00,64.0,-99.9,-100.00,NE,47,7.0,11.0,-999,-99.99,,,-99.99,,2013-07-26 05:02:00,
2013-07-26 01:33:00,64.0,-99.9,-100.00,NE,39,7.0,13.0,-999,-99.99,,,-99.99,,2013-07-26 05:33:00,
2013-07-26 02:02:00,64.0,-99.9,30.00,NE,44,6.0,10.0,-999,-99.99,,,-99.99,,2013-07-26 06:02:00,
2013-07-26 02:33:00,64.0,-99.9,-100.00,NE,39,5.0,12.0,-999,-99.99,,,-99.99,,2013-07-26 06:33:00,
2013-07-26 02:43:00,64.0,-99.9,-100.00,NE,34,8.0,14.0,-999,-99.99,,,-99.99,,2013-07-26 06:43:00,
2013-07-26 03:02:00,64.0,-99.9,29.99,NE,43,8.0,13.0,-999,-99.99,,,-99.99,,2013-07-26 07:02:00,
2013-07-26 03:32:00,65.0,-99.9,29.98,NE,45,7.0,14.0,-999,-99.99,,,-99.99,,2013-07-26 07:32:00,
2013-07-26 03:43:00,65.0,-99.9,-100.00,NE,40,6.0,18.0,-999,-99.99,,,-99.99,,2013-07-26 07:43:00,
2013-07-26 03:53:00,65.0,-99.9,-100.00,NE,37,8.0,18.0,-999,-99.99,,,-99.99,,2013-07-26 07:53:00,
2013-07-26 04:02:00,65.0,-99.9,29.97,NE,41,5.0,11.0,-999,-99.99,,,-99.99,,2013-07-26 08:02:00,
2013-07-26 04:32:00,66.0,-99.9,29.97,NNE,22,9.0,17.0,-999,-99.99,,,-99.99,,2013-07-26 08:32:00,
2013-07-26 04:44:00,66.0,-99.9,-100.00,NNE,28,9.0,16.0,-999,-99.99,,,-99.99,,2013-07-26 08:44:00,
2013-07-26 04:52:00,66.0,-99.9,-100.00,NNE,25,8.0,14.0,-999,-99.99,,,-99.99,,2013-07-26 08:52:00,
2013-07-26 05:02:00,66.0,-99.9,29.97,NNE,30,10.0,17.0,-999,-99.99,,,-99.99,,2013-07-26 09:02:00,
2013-07-26 05:12:00,66.0,-99.9,-100.00,NNE,31,9.0,16.0,-999,-99.99,,,-99.99,,2013-07-26 09:12:00,
2013-07-26 05:22:00,66.0,-99.9,-100.00,NNE,31,8.0,15.0,-999,-99.99,,,-99.99,,2013-07-26 09:22:00,
2013-07-26 05:33:00,66.0,-99.9,29.97,NNE,30,8.0,12.0,-999,-99.99,,,-99.99,,2013-07-26 09:33:00,
2013-07-26 05:43:00,66.0,-99.9,-100.00,NNE,25,8.0,13.0,-999,-99.99,,,-99.99,,2013-07-26 09:43:00,
2013-07-26 05:52:00,67.0,-99.9,-100.00,NNE,23,9.0,14.0,-999,-99.99,,,-99.99,,2013-07-26 09:52:00,
2013-07-26 06:02:00,67.0,-99.9,29.98,NNE,21,11.0,15.0,-999,-99.99,,,-99.99,,2013-07-26 10:02:00,
2013-07-26 07:02:00,67.0,-99.9,-100.00,NNE,30,9.0,16.0,-999,-99.99,,,-99.99,,2013-07-26 11:02:00,
2013-07-26 07:43:00,67.0,-99.9,-100.00,NNE,19,7.0,11.0,-999,-99.99,,,-99.99,,2013-07-26 11:43:00,
2013-07-26 08:22:00,67.0,-99.9,-100.00,North,11,5.0,12.0,-999,-99.99,,,-99.99,,2013-07-26 12:22:00,
2013-07-26 08:43:00,68.0,-99.9,-100.00,NNE,19,6.0,11.0,-999,-99.99,,,-99.99,,2013-07-26 12:43:00,
2013-07-26 09:02:00,68.0,-99.9,-100.00,NNE,20,6.0,10.0,-999,-99.99,,,-99.99,,2013-07-26 13:02:00,
2013-07-26 09:12:00,67.0,-99.9,-100.00,NNE,20,9.0,16.0,-999,-99.99,,,-99.99,,2013-07-26 13:12:00,
2013-07-26 09:23:00,67.0,-99.9,-100.00,NNE,17,9.0,14.0,-999,-99.99,,,-99.99,,2013-07-26 13:23:00,
2013-07-26 09:32:00,68.0,-99.9,-100.00,NNE,12,7.0,10.0,-999,-99.99,,,-99.99,,2013-07-26 13:32:00,
2013-07-26 09:43:00,68.0,-99.9,-100.00,NNE,17,6.0,10.0,-999,-99.99,,,-99.99,,2013-07-26 13:43:00,
2013-07-26 10:12:00,69.0,-99.9,-100.00,NNE,22,8.0,13.0,-999,-99.99,,,-99.99,,2013-07-26 14:12:00,
2013-07-26 10:22:00,69.0,-99.9,-100.00,NNE,28,6.0,13.0,-999,-99.99,,,-99.99,,2013-07-26 14:22:00,
2013-07-26 10:33:00,69.0,-99.9,-100.00,NNE,25,6.0,12.0,-999,-99.99,,,-99.99,,2013-07-26 14:33:00,
2013-07-26 10:43:00,70.0,-99.9,-100.00,NNE,27,7.0,13.0,-999,-99.99,,,-99.99,,2013-07-26 14:43:00,
2013-07-26 11:03:00,71.0,-99.9,30.01,NNE,27,5.0,8.0,-999,-99.99,,,-99.99,,2013-07-26 15:03:00,
2013-07-26 11:22:00,73.0,-99.9,-100.00,NNE,27,4.0,10.0,-999,-99.99,,,-99.99,,2013-07-26 15:22:00,
2013-07-26 11:33:00,73.0,-99.9,-100.00,NNE,14,5.0,10.0,-999,-99.99,,,-99.99,,2013-07-26 15:33:00,
2013-07-26 11:43:00,73.0,-99.9,-100.00,NNE,28,6.0,9.0,-999,-99.99,,,-99.99,,2013-07-26 15:43:00,
2013-07-26 12:14:00,73.0,-99.9,30.01,North,3,3.0,8.0,-999,-99.99,,,-99.99,,2013-07-26 16:14:00,
2013-07-26 12:22:00,74.0,-99.9,-100.00,North,6,2.0,5.0,-999,-99.99,,,-99.99,,2013-07-26 16:22:00,
2013-07-26 12:32:00,74.0,-99.9,-100.00,NE,43,2.0,5.0,-999,-99.99,,,-99.99,,2013-07-26 16:32:00,
2013-07-26 12:43:00,74.0,-99.9,-100.00,North,359,5.0,9.0,-999,-99.99,,,-99.99,,2013-07-26 16:43:00,
2013-07-26 13:03:00,74.0,-99.9,-100.00,NNE,19,5.0,9.0,-999,-99.99,,,-99.99,,2013-07-26 17:03:00,
2013-07-26 14:03:00,76.0,-99.9,-100.00,NNE,22,4.0,9.0,-999,-99.99,,,-99.99,,2013-07-26 18:03:00,
2013-07-26 14:33:00,76.0,-99.9,-100.00,NNE,23,7.0,10.0,-999,-99.99,,,-99.99,,2013-07-26 18:33:00,
2013-07-26 14:44:00,76.0,-99.9,-100.00,NNE,25,4.0,10.0,-999,-99.99,,,-99.99,,2013-07-26 18:44:00,
2013-07-26 14:53:00,77.0,-99.9,-100.00,NNE,21,5.0,9.0,-999,-99.99,,,-99.99,,2013-07-26 18:53:00,
2013-07-26 15:03:00,77.0,-99.9,29.99,NE,38,4.0,8.0,-999,-99.99,,,-99.99,,2013-07-26 19:03:00,
2013-07-26 15:32:00,78.0,-99.9,29.99,NNE,25,6.0,9.0,-999,-99.99,,,-99.99,,2013-07-26 19:32:00,
2013-07-26 15:43:00,78.0,-99.9,-100.00,NNE,16,6.0,9.0,-999,-99.99,,,-99.99,,2013-07-26 19:43:00,
2013-07-26 16:03:00,79.0,-99.9,-100.00,NNE,31,3.0,8.0,-999,-99.99,,,-99.99,,2013-07-26 20:03:00,
2013-07-26 16:12:00,78.0,-99.9,-100.00,NE,53,3.0,8.0,-999,-99.99,,,-99.99,,2013-07-26 20:12:00,
2013-07-26 16:43:00,80.0,-99.9,-100.00,NE,42,2.0,4.0,-999,-99.99,,,-99.99,,2013-07-26 20:43:00,
2013-07-26 17:32:00,80.0,-99.9,29.98,NE,38,5.0,8.0,-999,-99.99,,,-99.99,,2013-07-26 21:32:00,
2013-07-26 17:43:00,81.0,-99.9,-100.00,NE,43,1.0,5.0,-999,-99.99,,,-99.99,,2013-07-26 21:43:00,
2013-07-26 18:02:00,79.0,-99.9,-100.00,SSE,147,2.0,4.0,-999,-99.99,,,-99.99,,2013-07-26 22:02:00,
2013-07-26 18:33:00,80.0,-99.9,29.97,NE,51,0.0,2.0,-999,-99.99,,,-99.99,,2013-07-26 22:33:00,
2013-07-26 19:02:00,79.0,-99.9,-100.00,WSW,243,1.0,2.0,-999,-99.99,,,-99.99,,2013-07-26 23:02:00,
2013-07-26 19:32:00,76.0,-99.9,29.98,SSW,193,11.0,14.0,-999,-99.99,,,-99.99,,2013-07-26 23:32:00,
2013-07-26 19:43:00,75.0,-99.9,-100.00,South,191,12.0,15.0,-999,-99.99,,,-99.99,,2013-07-26 23:43:00,
2013-07-26 20:02:00,75.0,-99.9,-100.00,South,177,5.0,8.0,-999,-99.99,,,-99.99,,2013-07-27 00:02:00,
2013-07-26 20:32:00,75.0,-99.9,29.98,South,179,5.0,8.0,-999,-99.99,,,-99.99,,2013-07-27 00:32:00,
2013-07-26 20:43:00,74.0,-99.9,-100.00,South,180,6.0,10.0,-999,-99.99,,,-99.99,,2013-07-27 00:43:00,
2013-07-26 20:53:00,74.0,-99.9,-100.00,South,183,7.0,10.0,-999,-99.99,,,-99.99,,2013-07-27 00:53:00,
2013-07-26 21:02:00,74.0,-99.9,29.98,South,186,8.0,10.0,-999,-99.99,,,-99.99,,2013-07-27 01:02:00,
2013-07-26 21:12:00,74.0,-99.9,-100.00,South,188,10.0,13.0,-999,-99.99,,,-99.99,,2013-07-27 01:12:00,
2013-07-26 21:22:00,73.0,-99.9,-100.00,South,182,7.0,12.0,-999,-99.99,,,-99.99,,2013-07-27 01:22:00,
2013-07-26 21:33:00,73.0,-99.9,-100.00,South,183,9.0,13.0,-999,-99.99,,,-99.99,,2013-07-27 01:33:00,
2013-07-26 21:44:00,73.0,-99.9,-100.00,South,182,7.0,11.0,-999,-99.99,,,-99.99,,2013-07-27 01:44:00,
2013-07-26 21:53:00,73.0,-99.9,-100.00,South,182,7.0,10.0,-999,-99.99,,,-99.99,,2013-07-27 01:53:00,
2013-07-26 22:02:00,73.0,-99.9,30.00,South,179,6.0,11.0,-999,-99.99,,,-99.99,,2013-07-27 02:02:00,
2013-07-26 22:12:00,73.0,-99.9,-100.00,South,180,6.0,9.0,-999,-99.99,,,-99.99,,2013-07-27 02:12:00,
2013-07-26 22:23:00,73.0,-99.9,-100.00,South,190,11.0,12.0,-999,-99.99,,,-99.99,,2013-07-27 02:23:00,
2013-07-26 22:32:00,73.0,-99.9,30.01,SSW,197,11.0,14.0,-999,-99.99,,,-99.99,,2013-07-27 02:32:00,
2013-07-26 22:43:00,73.0,-99.9,-100.00,SSW,194,11.0,14.0,-999,-99.99,,,-99.99,,2013-07-27 02:43:00,
2013-07-26 23:22:00,73.0,-99.9,-100.00,SSW,209,10.0,13.0,-999,-99.99,,,-99.99,,2013-07-27 03:22:00,
2013-07-26 23:33:00,73.0,-99.9,-100.00,SW,218,10.0,12.0,-999,-99.99,,,-99.99,,2013-07-27 03:33:00,
2013-07-26 23:44:00,73.0,-99.9,-100.00,SSW,207,9.0,11.0,-999,-99.99,,,-99.99,,2013-07-27 03:44:00,